Weather History for Jonesboro, AR

Change the Weather History Date:

Sunday, September 1, 2013

  Actual Average Record
Temperature  
Mean Temperature 83 °F 77 °F  
Max Temperature 90 °F 88 °F 104 °F (1913)
Min Temperature 76 °F 67 °F 51 °F (1915)
Degree Days  
Heating Degree Days 0 0  
Month to date heating degree days 0 0  
Since 1 July heating degree days 0 0  
Cooling Degree Days 18 12  
Month to date cooling degree days 18 12  
Year to date cooling degree days 1618 1558  
Growing Degree Days 33 (Base 50)    
Moisture  
Dew Point 72 °F    
Average Humidity 70    
Maximum Humidity 88    
Minimum Humidity 52    
Precipitation  
Precipitation 0.00 in 0.08 in 5.57 in (1922)
Month to date precipitation 0.00 0.08  
Year to date precipitation 37.45 31.19  
Snow  
Snow 0.00 in - - ()
Month to date snowfall 0.0  
Since 1 July snowfall 0.0  
Since 1 September snowfall 0.0  
Snow Depth 0.00 in    
Sea Level Pressure  
Sea Level Pressure 29.83 in    
Wind  
Wind Speed 5 mph (South)    
Max Wind Speed 17 mph    
Max Gust Speed 23 mph    
Visibility 10 miles    
Events      
T = Trace of Precipitation, MM = Missing Value Source: NWS Daily Summary

Daily Weather History Graph

Daily Weather History Graph

Search for Another Location

Airport:

Trip Planner

Search our weather history database for the weather conditions in past years. The results will help you decide how hot, cold, wet, or windy it might be!

Date:

Astronomy

Sep. 01, 2013 Rise Set
Actual Time 6:34 AM CDT 7:29 PM CDT
Civil Twilight 6:08 AM CDT 7:55 PM CDT
Nautical Twilight 5:37 AM CDT 8:26 PM CDT
Astronomical Twilight 5:05 AM CDT 8:58 PM CDT
Moon 3:01 AM CDT (9/1) 5:03 PM CDT (9/1)
Length of Visible Light 13h 47m
Length of Day
12h 54m
Waning Crescent, 13% of the Moon is Illuminated
Sep 1
Waning Crescent
Sep 5
New
Sep 12
First Quarter
Sep 19
Full
Sep 26
Last Quarter

Hourly Weather History & Observations

Time (CDT) Temp. Heat Index Dew Point Humidity Pressure Visibility Wind Dir Wind Speed Gust Speed Precip Events Conditions
12:53 AM 84.0 °F 89.0 °F 71.1 °F 65% 29.80 in 10.0 mi SSW 8.1 mph - N/A   Clear
1:53 AM 82.9 °F 87.5 °F 71.1 °F 67% 29.80 in 10.0 mi SW 8.1 mph - N/A   Clear
2:53 AM 81.0 °F 84.9 °F 71.1 °F 72% 29.80 in 10.0 mi SW 5.8 mph - N/A   Partly Cloudy
3:53 AM 81.0 °F 84.9 °F 71.1 °F 72% 29.80 in 10.0 mi SW 6.9 mph - N/A   Clear
4:53 AM 80.1 °F 83.6 °F 71.1 °F 74% 29.80 in 10.0 mi SW 6.9 mph - N/A   Clear
5:53 AM 80.1 °F 83.6 °F 71.1 °F 74% 29.80 in 10.0 mi WSW 5.8 mph - N/A   Clear
6:53 AM 79.0 °F - 71.1 °F 77% 29.82 in 8.0 mi West 5.8 mph - N/A   Overcast
7:53 AM 81.0 °F 85.2 °F 72.0 °F 74% 29.86 in 8.0 mi West 6.9 mph - N/A   Mostly Cloudy
8:53 AM 84.0 °F 88.4 °F 70.0 °F 63% 29.85 in 10.0 mi Calm Calm - N/A   Clear
9:53 AM 88.0 °F 93.8 °F 71.1 °F 57% 29.86 in 10.0 mi Calm Calm - N/A   Clear
10:53 AM 89.1 °F 96.0 °F 72.0 °F 57% 29.87 in 10.0 mi Calm Calm - N/A   Scattered Clouds
11:53 AM 86.0 °F 91.5 °F 71.1 °F 61% 29.90 in 10.0 mi ENE 13.8 mph 19.6 mph N/A   Clear
12:53 PM 87.1 °F 92.8 °F 71.1 °F 59% 29.88 in 10.0 mi ESE 8.1 mph - N/A   Clear
1:53 PM 89.1 °F 94.1 °F 70.0 °F 53% 29.86 in 10.0 mi SE 9.2 mph - N/A   Partly Cloudy
2:53 PM 89.1 °F 98.0 °F 73.9 °F 61% 29.84 in 10.0 mi SE 9.2 mph - N/A   Clear
3:53 PM 86.0 °F 93.8 °F 73.9 °F 67% 29.83 in 10.0 mi SSE 10.4 mph - N/A   Clear
4:53 PM 87.1 °F 93.6 °F 72.0 °F 61% 29.81 in 10.0 mi SSE 9.2 mph - N/A   Clear
5:53 PM 86.0 °F 93.0 °F 73.0 °F 65% 29.79 in 10.0 mi SSE 6.9 mph - N/A   Clear
6:53 PM 84.0 °F 90.2 °F 73.0 °F 69% 29.81 in 10.0 mi South 3.5 mph - N/A   Clear
7:53 PM 80.1 °F 84.5 °F 73.9 °F 81% 29.83 in 10.0 mi Calm Calm - N/A   Clear
8:53 PM 79.0 °F - 73.0 °F 82% 29.84 in 10.0 mi Calm Calm - N/A   Clear
9:53 PM 77.0 °F - 73.0 °F 88% 29.84 in 10.0 mi Calm Calm - N/A   Partly Cloudy
10:53 PM 77.0 °F - 73.0 °F 88% 29.85 in 10.0 mi Calm Calm - N/A   Partly Cloudy
11:53 PM 77.0 °F - 73.0 °F 88% 29.86 in 8.0 mi Calm Calm - N/A   Mostly Cloudy